Voltar ao catálogo

NOAA 16 DEB

AtivoSSO
NORAD 41264·DEBRIS·🇺🇸 United States

Lançado Sep 21, 2000 de Vandenberg Space Force Base

Loading…

Próximas Passagens (próximas 24 horas)

TLE

AtualizadoSource: Space-Track

Época: Sep 13, 2026, 20:56 UTC

1 41264U 00055FQ  26256.87273912  .00001925  00000-0  79509-3 0  9997
2 41264  98.6210 311.0082 0003705 171.7919 188.3323 14.27898082554483

Acompanhe NOAA 16 DEB em tempo real com AllMySat

Download on the App Store